Location: Makanda
(37.6176°N, 89.2090°W)
Time: 02:17:55
(UTC+00:00)

Cosmos 1782 Rocket - Pass Details

Date: 23 September 2019
Orbit: 607 x 632 km, 82.5° (Epoch: 19 October)

Event Time Altitude Azimuth Distance (km) Brightness Sun altitude
Rises 10:18:54 0° 352° (N) 2,888 7.1 -17.8°
Reaches altitude 10° 10:21:07 10° 352° (N) 1,983 6.2 -17.3°
Maximum altitude 10:25:31 88° 269° (W) 624 3.5 -16.5°
Drops below altitude 10° 10:29:55 10° 175° (S) 1,983 6.1 -15.6°
Sets 10:32:09 0° 175° (S) 2,889 6.9 -15.2°
